Regional Weather Roundup
Issued by NWS

Home | Current Version | Previous Version | Graphics & Text | Print | Product List | Glossary On
Versions: 1 2 3 4 5 6 7 8 9 10 11 12 13 14 15 16 17 18 19 20 21 22 23 24 25 26 27 28 29 30 31 32 33 34 35 36 37 38 39 40 41 42 43 44 45 46 47 48 49 50
000
ASUS43 KBIS 091802
RWRND

NORTH DAKOTA REGIONAL WEATHER ROUNDUP
NATIONAL WEATHER SERVICE BISMARCK ND
1200 PM CST TUE FEB 09 2016

NOTE: "FAIR" INDICATES FEW OR NO CLOUDS BELOW 12,000 FEET WITH NO
SIGNIFICANT WEATHER AND/OR OBSTRUCTIONS TO VISIBILITY.


NDZ001>003-009>011-017-091900-
NORTHWEST NORTH DAKOTA

CITY           SKY/WX    TMP DP  RH WIND       PRES   REMARKS
WILLISTON      CLOUDY    33  23  66 N7        30.21F
6HR MIN TEMP:  25; 6HR MAX TEMP:  33;

MINOT          MOSUNNY   35  15  44 W8        30.20S
MINOT AFB      MOSUNNY   34  17  50 NW1       30.19F
$$

NDZ018>021-031>035-040>046-091900-
SOUTHWEST NORTH DAKOTA

CITY           SKY/WX    TMP DP  RH WIND       PRES   REMARKS
BISMARCK       CLOUDY    34  10  37 SW9       30.23F
6HR MIN TEMP:  25; 6HR MAX TEMP:  34;

DICKINSON      CLOUDY    35  21  56 NW16      30.16S
GARRISON       NOT AVBL
HETTINGER ARPT CLOUDY    40  24  53 NW15      30.18F
$$

NDZ004>008-012>016-024-026-027-054-091900-
NORTHEAST NORTH DAKOTA

CITY           SKY/WX    TMP DP  RH WIND       PRES   REMARKS
GRAND FORKS    CLOUDY    11   3  70 N15       30.31S WCI  -5
GRND FRKS AFB  CLOUDY    10   3  72 N13       30.30F WCI  -5
DEVILS LAKE    CLOUDY    16   8  71 E9        30.25F WCI   4
$$

NDZ022-023-025-028>030-036>039-047>053-091900-
SOUTHEAST NORTH DAKOTA

CITY           SKY/WX    TMP DP  RH WIND       PRES   REMARKS
FARGO          CLOUDY    13   5  70 N15       30.29F WCI  -3
6HR MIN TEMP:   8; 6HR MAX TEMP:  13;

JAMESTOWN      CLOUDY    21   7  54 NE7       30.23F WCI  12
$$




USA.gov is the U.S. government's official web portal to all federal, state and local government web resources and services.